FW7761 Weather Reports


time (UTC)temp
C
wind
direction
speed
KPH
gust
KPH
rain 1hr
cm
rain 24hr
cm
rain mn
cm
humidity
%
barometer
mb
20260510183607 11 266 1.6 3.2 0.10 0.30 0.30 91 1014.7
20260510182522 11 274 1.6 4.8 0.10 0.30 0.30 90 1014.6
20260510181534 12 285 3.2 4.8 0.10 0.30 0.30 88 1014.5
20260510180529 12 309 1.6 4.8 0.00 0.20 0.20 86 1014.4
20260510175525 12 321 1.6 3.2 0.00 0.20 0.20 86 1014.2
20260510174517 12 337 1.6 3.2 0.00 0.20 0.20 85 1014.4
20260510173551 12 331 1.6 4.8 0.00 0.20 0.20 85 1014.4
20260510172526 12 313 1.6 3.2 0.00 0.20 0.20 86 1014.5
20260510171521 11 274 3.2 6.4 0.00 0.20 0.20 87 1014.8
20260510170535 12 287 3.2 9.7 0.00 0.20 0.20 87 1014.8
20260510165528 12 300 6.4 11.3 0.00 0.20 0.20 87 1014.9
20260510164523 11 294 8.0 14.5 0.03 0.20 0.20 90 1014.6
20260510163518 11 291 3.2 6.4 0.13 0.25 0.20 92 1014.5
20260510162613 10 278 8.0 16.1 0.15 0.25 0.20 92 1014.9
20260510161527 10 302 8.0 12.9 0.15 0.25 0.20 92 1015.0
20260510160520 10 300 11.3 17.7 0.18 0.25 0.20 91 1014.9
20260510155534 10 292 11.3 17.7 0.18 0.25 0.20 91 1015.0
20260510154529 11 288 17.7 33.8 0.15 0.23 0.18 89 1014.8
20260510153526 13 280 17.7 33.8 0.05 0.13 0.08 84 1014.5
20260510152518 13 256 16.1 27.4 0.03 0.10 0.05 84 1014.1
20260510151533 13 251 17.7 33.8 0.03 0.10 0.05 84 1014.2
20260510150548 14 263 22.5 35.4 0.00 0.08 0.03 79 1014.1
20260510145704 15 257 17.7 38.6 0.00 0.08 0.03 72 1013.9
20260510144517 15 261 16.1 33.8 0.00 0.08 0.03 73 1013.8
20260510143530 15 248 17.7 35.4 0.00 0.08 0.03 75 1013.9
20260510142524 15 236 16.1 27.4 0.00 0.08 0.03 77 1013.9
20260510141519 14 244 14.5 25.7 0.00 0.08 0.03 79 1014.1
20260510140532 15 252 17.7 30.6 0.00 0.08 0.03 67 1014.1
20260510135548 16 237 12.9 30.6 0.00 0.08 0.03 66 1014.0
20260510134521 16 225 14.5 22.5 0.00 0.08 0.03 67 1014.0
20260510133555 16 243 16.1 29.0 0.00 0.08 0.03 61 1013.9
20260510132529 16 213 19.3 37.0 0.00 0.08 0.03 61 1013.9
20260510131544 16 227 12.9 25.7 0.00 0.08 0.03 62 1014.0
20260510130518 16 231 17.7 33.8 0.00 0.08 0.03 62 1014.1
20260510125552 16 223 16.1 35.4 0.00 0.08 0.03 63 1014.1
20260510124527 16 203 20.9 38.6 0.00 0.08 0.03 62 1014.3
20260510123523 16 215 22.5 40.2 0.00 0.08 0.03 64 1014.3
20260510122517 16 215 16.1 29.0 0.00 0.08 0.03 66 1014.5
20260510121531 15 221 17.7 29.0 0.00 0.08 0.03 66 1014.6
20260510120525 15 213 20.9 33.8 0.00 0.08 0.03 67 1014.8
20260510115541 16 225 19.3 29.0 0.00 0.08 0.03 65 1014.7
20260510114555 15 225 14.5 29.0 0.00 0.08 0.03 65 1014.9
20260510113549 15 229 14.5 22.5 0.00 0.08 0.03 65 1014.9
20260510112521 16 215 14.5 25.7 0.00 0.08 0.03 64 1014.9
20260510111516 16 216 16.1 27.4 0.00 0.08 0.03 64 1015.0
20260510110531 16 208 16.1 29.0 0.00 0.08 0.03 65 1015.0
20260510105526 15 229 14.5 22.5 0.00 0.08 0.03 66 1015.0
20260510104520 15 227 14.5 25.7 0.00 0.08 0.03 66 1015.1
20260510103555 15 212 12.9 22.5 0.00 0.08 0.03 65 1015.0
20260510102527 15 227 9.7 24.1 0.00 0.08 0.03 65 1015.1
20260510101522 15 252 8.0 16.1 0.00 0.08 0.03 67 1015.1
20260510100518 15 237 6.4 12.9 0.00 0.08 0.03 69 1015.1
20260510095532 14 248 8.0 17.7 0.00 0.08 0.03 72 1015.3
20260510094526 14 211 9.7 16.1 0.00 0.10 0.03 72 1015.3
20260510093520 14 218 12.9 25.7 0.00 0.18 0.03 73 1015.3
20260510092535 14 222 9.7 14.5 0.00 0.20 0.03 73 1015.3
20260510091529 13 214 14.5 22.5 0.00 0.25 0.03 75 1015.3
20260510090522 13 206 8.0 12.9 0.00 0.25 0.03 77 1015.2
20260510085518 13 240 8.0 14.5 0.00 0.25 0.03 77 1015.3
20260510084551 12 213 8.0 14.5 0.00 0.28 0.03 81 1015.5
20260510083525 12 215 6.4 14.5 0.00 0.28 0.03 81 1015.5
20260510082520 12 196 4.8 9.7 0.00 0.28 0.03 81 1015.3
20260510081534 12 207 6.4 12.9 0.00 0.28 0.03 82 1015.4
20260510080548 12 215 4.8 11.3 0.00 0.28 0.03 85 1015.3
20260510075524 11 224 6.4 9.7 0.00 0.28 0.03 87 1015.5
20260510074559 11 212 8.0 12.9 0.00 0.28 0.03 88 1015.4
20260510073532 11 240 4.8 11.3 0.03 0.28 0.03 91 1015.3
20260510072547 11 224 3.2 6.4 0.03 0.28 0.03 92 1015.4
20260510071543 10 253 1.6 4.8 0.03 0.28 0.03 94 1015.3
20260510070557 10 254 3.2 4.8 0.03 0.28 0.03 95 1015.3
20260510065530 10 234 3.2 12.9 0.03 0.28 0.03 96 1015.2
20260510064525 10 204 1.6 6.4 0.03 0.28 0.03 96 1015.3
20260510063539 9 0.0 0.0 0.00 0.25 0.00 96 1015.2
20260510062534 8 0.0 0.0 0.00 0.25 0.00 96 1015.0
20260510061528 8 0.0 0.0 0.00 0.25 0.00 96 1015.0
20260510060523 8 0.0 0.0 0.00 0.25 0.00 96 1015.0
20260510055517 7 0.0 0.0 0.00 0.25 0.00 96 1015.0
20260510054531 7 0.0 0.0 0.00 0.25 0.00 96 1015.1
20260510053526 7 62 0.0 1.6 0.00 0.25 0.00 96 1014.9
20260510052539 7 0.0 0.0 0.00 0.25 0.00 96 1014.8
20260510051554 7 0.0 0.0 0.00 0.25 0.00 96 1014.8
20260510050527 7 0.0 0.0 0.00 0.25 0.00 96 1014.7
20260510045523 7 0.0 0.0 0.00 0.25 0.00 96 1014.7
20260510044538 7 73 1.6 3.2 0.00 0.25 0.00 96 1014.7
20260510043529 6 57 3.2 4.8 0.00 0.25 0.00 95 1014.7
20260510042525 6 62 1.6 3.2 0.00 0.25 0.00 95 1014.8
20260510041518 6 62 1.6 3.2 0.00 0.25 0.00 95 1014.8
20260510040532 7 0.0 0.0 0.00 0.25 0.00 95 1014.9
20260510035529 6 62 0.0 1.6 0.00 0.25 0.00 95 1014.9
20260510034543 6 56 1.6 3.2 0.00 0.25 0.00 95 1015.0
20260510033516 6 49 0.0 1.6 0.00 0.25 0.00 95 1014.9
20260510032550 7 0.0 0.0 0.00 0.25 0.00 95 1015.0
20260510031525 6 49 1.6 3.2 0.00 0.25 0.00 95 1015.0
20260510030519 6 51 3.2 3.2 0.00 0.25 0.00 94 1014.9
20260510025534 6 0.0 0.0 0.00 0.25 0.00 94 1014.9
20260510024528 7 0.0 0.0 0.00 0.25 0.00 94 1014.8
20260510023522 7 0.0 0.0 0.00 0.25 0.00 94 1014.9
20260510022516 7 0.0 0.0 0.00 0.25 0.00 94 1015.1
20260510021531 8 212 1.6 3.2 0.00 0.25 0.00 94 1015.0
20260510020526 7 285 0.0 1.6 0.00 0.25 0.00 94 1015.0
20260510015519 7 0.0 0.0 0.00 0.25 0.00 94 1015.0
20260510014716 7 0.0 0.0 0.00 0.25 0.00 94 1015.1
20260510013529 8 0.0 0.0 0.00 0.25 0.00 94 1015.1
20260510012524 8 0.0 0.0 0.00 0.25 0.00 94 1015.2
20260510011517 7 50 0.0 1.6 0.00 0.25 0.00 93 1015.3
20260510010531 7 51 1.6 4.8 0.00 0.25 0.00 93 1015.4
20260510005525 8 0.0 0.0 0.00 0.25 0.00 92 1015.4
20260510004519 8 0.0 0.0 0.00 0.25 0.00 92 1015.6
20260510003534 9 0.0 0.0 0.00 0.25 0.00 92 1015.7
20260510002528 8 0.0 0.0 0.00 0.25 0.00 92 1015.7
20260510001522 9 0.0 0.0 0.00 0.25 0.00 91 1015.8
20260510000516 9 223 1.6 4.8 0.00 0.25 0.00 91 1015.9
20260509235531 9 232 0.0 1.6 0.00 0.25 0.00 91 1015.9
20260509234526 10 213 1.6 3.2 0.00 0.25 0.00 91 1016.0
20260509233540 10 149 0.0 1.6 0.00 0.25 0.00 91 1016.0
20260509232534 10 0.0 0.0 0.00 0.25 0.00 90 1016.0
20260509231528 10 40 1.6 3.2 0.00 0.25 0.00 90 1016.0
20260509230523 10 5 1.6 3.2 0.00 0.25 0.00 89 1015.8
20260509225517 10 241 1.6 3.2 0.00 0.25 0.00 88 1015.7
20260509224532 10 250 3.2 4.8 0.00 0.25 0.00 88 1015.8
20260509223526 10 217 1.6 3.2 0.00 0.25 0.00 88 1015.6
20260509222521 11 215 1.6 3.2 0.00 0.25 0.00 88 1015.6
20260509221555 11 214 0.0 3.2 0.00 0.25 0.00 88 1015.7
20260509220530 11 215 0.0 1.6 0.00 0.25 0.00 87 1015.5
20260509215525 11 213 1.6 3.2 0.00 0.25 0.25 87 1015.6
20260509214518 11 208 4.8 9.7 0.00 0.25 0.25 86 1015.5
20260509213552 11 216 8.0 11.3 0.00 0.25 0.25 85 1015.5
20260509212527 12 226 8.0 12.9 0.00 0.25 0.25 84 1015.6
20260509211541 12 232 6.4 12.9 0.00 0.25 0.25 84 1015.4
20260509210516 12 225 8.0 14.5 0.00 0.25 0.25 84 1015.4
20260509205531 12 235 9.7 16.1 0.00 0.25 0.25 85 1015.4
20260509204547 12 236 6.4 12.9 0.00 0.25 0.25 86 1015.3
20260509203520 12 239 6.4 12.9 0.00 0.25 0.25 87 1015.1
20260509202535 12 222 6.4 9.7 0.00 0.25 0.25 87 1014.9
20260509201529 12 209 6.4 9.7 0.00 0.25 0.25 86 1014.8
20260509200543 12 209 4.8 6.4 0.00 0.25 0.25 84 1014.6
20260509195521 13 220 3.2 11.3 0.00 0.25 0.25 83 1014.5
20260509194530 13 252 3.2 9.7 0.00 0.25 0.25 81 1014.4
20260509193525 13 250 4.8 6.4 0.00 0.25 0.25 81 1014.2
20260509192519 13 253 8.0 12.9 0.00 0.25 0.25 80 1014.0
20260509191533 13 253 11.3 20.9 0.00 0.25 0.25 78 1013.9
20260509190528 13 262 9.7 30.6 0.00 0.25 0.25 83 1013.5
20260509185522 13 185 1.6 4.8 0.00 0.25 0.25 82 1013.1
20260509184537 13 181 1.6 4.8 0.00 0.25 0.25 81 1013.0